Hourly Data Report for June 24, 2021

VINELAND STATION RCS
ONTARIO
Current Station Operator: ECCC - MSC

43°11'00.000" N
79°24'00.000" W
79.20 m
6139148
71171
XVN

Download Data

Hourly Data (June 2021)
Hourly Data Report for June 24, 2021
TIME
LST
Temp Definition
°C
Dew Point Definition
°C
Rel Hum Definition
%
Precip. Amount Definition
mm

Wind Dir Definition
10's deg

Wind Spd Definition
km/h
Visibility Definition
km
Stn Press Definition
kPa
Hmdx Definition


Wind Chill Definition


Weather Definition


00:00 18.2 9.9 59 0.0 18 10   101.20     LegendNANA
01:00 18.4 10.6 60 0.0 17 11   101.20     LegendNANA
02:00 17.8 10.2 61 0.0 18 11   101.24     LegendNANA
03:00 17.1 11.2 68 0.0 19 14   101.22     LegendNANA
04:00 17.0 11.3 69 0.0 20 14   101.24     LegendNANA
05:00 16.2 11.5 74 0.0 19 11   101.26     LegendNANA
06:00 17.7 12.0 69 0.0 18 11   101.26     LegendNANA
07:00 20.1 11.9 59 0.0 18 12   101.24     LegendNANA
08:00 22.7 12.1 51 0.0 18 12   101.26 25   LegendNANA
09:00 22.2 10.5 47 0.0 18 18   101.22     LegendNANA
10:00 23.5 10.6 44 0.0 19 19   101.19 25   LegendNANA
11:00 25.6 11.4 41 0.0 19 21   101.13 28   LegendNANA
12:00 26.7 10.7 37 0.0 19 21   101.10 28   LegendNANA
13:00 27.5 10.4 34 0.0 20 23   101.04 29   LegendNANA
14:00 28.1 11.4 35 0.0 19 25   100.98 30   LegendNANA
15:00 27.9 10.7 34 0.0 19 24   100.93 30   LegendNANA
16:00 27.8 11.0 35 0.0 19 21   100.94 30   LegendNANA
17:00 27.1 12.0 39 0.0 20 13   100.93 29   LegendNANA
18:00 26.4 12.0 41 0.0 20 14   100.94 29   LegendNANA
19:00 26.0 12.1 42 0.0 19 9   100.94 28   LegendNANA
20:00 25.1 11.3 42 0.0 18 10   100.92 27   LegendNANA
21:00 25.1 10.2 39 0.0 18 12   100.94 26   LegendNANA
22:00 24.0 10.4 42 0.0 18 11   100.92 25   LegendNANA
23:00 23.4 11.1 46 0.0 18 13   100.91 25   LegendNANA

Notes on Data Quality.

Legend

  • E = Estimated
  • M = Missing
  • NA = Not Available*
  • [empty] = Indicates an unobserved value
Date modified: